GFSFLT2_850_spd_000.txt.gz
Wind_Speed
43 44 42 43 45 40 37 37 33 43 44 46 42 41 41 42 44 44 42 41 42 41 41 41 41 43 44
44 46 46 44 36 39 45 46 41 41 38 36 39 40 42 41 40 38 37 36 37 37 37 37 37 36 38
43 44 49 38 37 46 44 44 43 38 35 35 35 34 34 35 32 36 38 36 37 37 38 38 39 38 39
38 42 34 42 40 41 46 42 46 41 37 33 36 37 36 40 40 38 36 35 35 34 34 35 36 37 39
43 37 32 42 38 41 42 45 42 29 46 45 34 41 45 40 38 35 33 33 33 34 35 36 35 34 34
32 41 40 39 42 42 41 30 51 42 33 47 40 44 42 41 38 35 36 37 38 38 38 38 38 36 36
36 37 39 41 39 41 44 41 41 46 44 43 41 41 43 42 36 35 35 35 36 38 38 38 39 39 40
33 36 38 40 42 39 40 42 40 41 36 38 41 43 41 41 38 35 33 33 34 33 34 33 33 36 36
30 34 37 32 31 33 37 37 38 38 36 37 41 43 43 44 37 24 26 31 34 36 37 37 34 32 32
41 36 30 31 28 28 32 35 37 39 36 34 40 39 31 33 22 40 40 38 32 35 36 36 35 34 38
31 34 35 34 31 29 29 30 36 38 34 32 37 37 30 37 43 43 43 35 35 32 23 23 25 29 35
33 34 35 35 34 31 29 27 26 30 30 29 33 35 35 37 39 42 36 31 31 23 29 24 20 20 29
34 34 34 34 34 34 31 28 28 28 27 27 27 28 29 34 38 36 34 36 17 32 23 20 17 13 16
32 33 34 34 34 32 33 31 33 32 28 24 22 24 27 23 22 27 28 26 27 19 15 11 4 4 9
31 34 34 34 34 31 31 30 31 33 32 26 21 21 15 15 19 24 28 21 19 16 15 19 17 4 7
31 33 34 34 34 33 30 29 30 31 28 25 24 23 18 18 23 31 21 20 22 23 24 27 34 21 6
31 33 33 33 33 32 31 29 28 28 23 23 22 22 22 20 27 27 25 25 28 31 31 32 32 43 35

GFSFLT2_850_spd_003.txt.gz
Wind_Speed
44 44 49 43 41 39 35 32 37 38 40 45 43 38 38 39 40 40 41 41 44 45 47 44 44 44 44
48 49 44 43 47 43 32 45 39 38 39 37 35 35 35 34 35 37 36 39 40 40 37 38 40 39 40
44 45 41 45 45 33 48 46 39 38 37 32 30 31 34 38 39 39 37 38 38 37 36 38 39 40 40
41 38 46 39 37 39 46 40 42 42 35 30 39 39 35 35 36 39 40 39 38 38 38 38 40 41 42
41 36 37 38 41 42 41 44 40 40 43 42 37 39 42 37 36 34 34 34 35 36 37 37 38 40 39
32 39 46 40 41 41 40 43 45 40 34 45 43 45 44 41 37 33 34 36 37 37 38 39 40 38 39
40 39 40 41 40 43 43 41 43 47 41 43 44 44 42 41 37 36 36 36 36 37 37 37 38 40 42
31 36 38 40 41 39 40 42 43 43 34 39 43 44 44 43 40 36 33 31 32 33 34 36 37 38 39
30 35 38 32 29 32 36 38 40 39 38 36 42 43 44 45 40 32 30 33 35 36 37 39 38 38 40
41 33 28 29 28 28 32 36 38 42 33 35 41 37 34 36 32 42 41 41 34 33 33 34 35 39 42
31 32 33 33 31 30 30 32 37 40 38 33 38 38 33 39 42 43 39 38 35 34 30 26 25 29 36
32 34 34 35 33 32 30 30 29 32 32 27 34 36 39 39 43 44 38 35 32 22 29 27 25 23 30
32 32 34 34 34 35 33 31 31 29 28 27 27 29 30 36 40 39 39 39 19 32 27 26 23 19 20
31 31 33 35 35 34 35 34 35 33 30 28 24 24 27 27 29 32 30 27 29 21 20 17 16 9 9
30 32 34 36 36 33 33 33 32 34 35 31 24 22 20 18 23 29 31 28 25 24 22 22 27 15 5
29 31 35 36 35 33 31 32 31 32 33 28 27 28 26 20 26 33 35 32 25 25 29 29 30 28 7
29 32 34 33 33 33 33 32 31 31 27 24 25 26 29 25 27 30 37 36 30 28 32 33 32 29 26

GFSFLT2_850_spd_006.txt.gz
Wind_Speed
45 45 49 43 41 40 41 36 35 30 37 43 44 42 42 42 41 40 39 39 39 39 40 41 42 42 45
46 49 45 45 44 45 43 37 43 41 37 39 40 41 38 36 36 37 37 38 40 40 39 39 38 41 43
45 46 46 41 44 39 44 41 38 36 37 36 36 35 35 36 40 40 40 39 39 40 40 38 38 38 37
42 43 37 34 41 41 43 39 41 38 42 40 35 35 35 36 36 37 38 38 38 39 41 41 41 41 42
31 35 43 41 40 43 42 44 44 40 42 42 38 40 44 39 36 35 34 33 34 36 36 37 38 38 40
40 40 40 42 44 42 41 45 48 38 35 50 43 44 43 41 37 32 34 36 36 37 37 38 38 39 40
38 37 41 41 41 47 45 44 44 46 41 47 44 47 44 42 38 35 35 35 36 37 37 37 38 38 39
31 35 36 40 38 38 39 42 45 44 33 40 45 45 45 45 43 36 33 33 33 33 33 34 35 36 39
30 36 36 31 28 31 36 39 42 43 42 36 40 43 47 46 34 31 31 33 33 33 34 35 36 38 42
40 34 29 27 29 28 32 36 38 43 39 38 43 39 33 37 35 43 40 35 30 31 32 33 34 37 44
33 33 32 32 32 32 31 31 36 40 38 34 38 39 31 41 46 43 36 39 37 32 24 22 24 29 39
32 34 33 34 35 34 32 30 30 33 31 27 33 34 38 43 43 44 41 35 32 25 30 27 25 25 29
33 32 32 35 37 35 32 31 32 30 27 27 28 30 32 38 41 40 39 37 21 31 27 26 22 19 24
31 31 33 37 36 33 35 35 36 35 29 27 26 27 30 26 27 33 37 31 37 29 27 26 19 19 21
30 31 34 36 35 33 33 34 33 35 37 32 28 27 26 19 25 32 37 40 40 35 29 32 26 22 21
29 31 35 36 35 34 32 32 32 33 35 31 32 33 31 28 24 31 37 41 44 40 30 34 32 30 22
29 32 35 33 33 33 32 32 31 32 32 27 29 30 32 32 22 26 33 39 43 45 37 34 32 29 23

GFSFLT2_850_spd_009.txt.gz
Wind_Speed
38 38 32 32 33 31 30 32 32 37 39 42 40 40 40 42 43 43 43 42 41 41 41 40 40 39 40
40 39 38 35 33 33 33 35 38 35 35 35 37 39 39 40 41 41 40 39 40 41 41 40 41 41 40
42 43 38 32 35 41 35 36 33 32 34 34 34 35 37 37 38 39 39 39 40 40 40 40 39 39 40
35 31 40 43 36 38 39 37 37 35 39 35 34 35 36 37 38 37 37 38 37 37 38 39 39 41 43
36 38 38 38 36 37 39 41 43 35 39 32 38 41 41 37 36 35 34 34 34 35 35 36 37 38 39
37 36 35 33 37 37 40 42 46 32 30 47 42 43 40 39 35 34 35 36 37 37 37 37 38 39 39
35 31 35 35 38 44 42 40 41 44 41 43 43 43 41 42 37 35 35 35 36 37 37 38 38 39 40
27 33 33 37 36 33 35 38 41 43 31 40 44 42 42 46 39 29 30 30 31 32 33 34 36 37 38
27 30 35 29 25 26 32 34 40 42 39 30 32 41 44 43 26 28 30 31 31 32 33 34 35 37 41
35 33 27 24 24 25 31 33 34 38 27 33 37 33 32 24 30 45 36 32 29 30 32 34 36 38 43
31 29 27 27 28 30 30 29 32 34 35 29 34 36 24 38 48 40 37 37 35 29 23 25 27 29 36
26 28 30 29 32 32 29 27 27 30 28 22 28 31 35 41 41 39 37 37 27 31 34 32 29 29 32
27 31 30 32 35 34 31 30 31 28 24 21 23 28 31 36 38 36 38 43 31 40 41 38 34 29 32
29 29 29 34 35 33 34 33 35 32 26 24 24 27 30 29 28 33 35 31 43 44 44 39 31 29 30
29 28 31 35 34 32 31 31 32 34 34 28 26 27 25 24 28 28 35 39 41 44 44 40 34 26 29
27 30 34 35 34 31 29 30 31 32 33 32 30 33 33 29 22 30 34 38 41 43 43 41 37 30 23
30 32 32 32 30 29 29 29 31 31 32 28 26 27 28 28 34 30 33 37 39 42 42 42 36 24 21

GFSFLT2_850_spd_012.txt.gz
Wind_Speed
30 29 30 29 29 28 29 33 37 36 37 37 36 37 36 37 39 40 41 42 42 42 42 42 44 44 44
35 34 32 30 29 32 36 35 32 33 35 36 36 36 36 36 37 39 40 40 41 41 42 41 42 42 41
41 38 36 30 37 40 29 31 29 31 33 34 35 37 35 35 36 38 40 41 40 41 41 42 43 43 44
37 38 33 38 36 35 33 32 34 31 38 34 33 33 33 37 39 39 39 38 38 39 39 40 40 41 42
29 35 39 36 35 33 36 38 41 33 37 33 33 42 41 37 36 35 34 35 37 37 37 38 39 39 39
37 36 36 34 33 36 38 40 41 31 29 47 38 43 41 40 36 35 36 37 38 38 38 38 41 41 41
33 32 34 32 37 38 42 38 39 42 38 46 38 41 41 40 36 35 34 34 35 36 37 38 39 41 42
28 31 35 33 35 37 36 38 39 36 29 39 42 38 40 44 32 24 28 29 30 32 34 35 37 38 40
28 28 32 32 27 28 31 32 39 39 32 28 30 40 42 38 22 25 28 34 28 28 28 32 35 37 40
28 27 24 23 21 20 27 31 33 37 24 28 36 29 30 24 26 43 37 31 31 33 28 28 31 36 42
24 23 21 21 21 23 27 27 31 34 36 29 34 32 24 39 44 41 35 36 36 36 34 35 30 29 35
22 23 25 26 27 30 30 28 29 32 32 25 30 30 32 39 41 42 41 39 38 39 41 41 37 35 34
23 27 27 28 32 35 33 31 31 30 27 25 25 27 28 36 42 44 38 40 36 41 44 45 45 40 38
23 26 26 29 34 33 32 33 33 33 29 27 25 25 30 34 34 38 36 35 44 45 46 46 44 40 37
26 28 29 31 33 31 30 30 30 34 37 30 26 25 28 26 30 28 34 39 43 45 44 45 44 38 34
28 30 32 32 32 31 28 29 31 34 33 31 31 31 32 30 15 26 34 39 41 43 40 40 46 34 26
31 32 31 30 31 31 29 30 32 34 33 28 27 28 30 32 40 31 34 35 41 41 37 37 40 34 28

GFSFLT2_850_spd_015.txt.gz
Wind_Speed
30 29 30 31 31 31 32 37 39 38 36 34 35 35 35 36 36 37 37 38 38 39 39 39 40 40 41
33 33 30 34 31 36 33 37 35 36 31 34 35 35 36 36 37 37 37 38 39 39 40 41 41 41 41
36 34 36 34 31 35 39 32 33 33 34 35 35 37 35 34 35 36 37 39 40 40 40 41 42 41 41
36 40 36 28 34 34 35 34 36 37 39 38 32 34 34 35 38 38 37 37 37 37 38 38 39 40 40
38 37 35 37 33 32 34 36 44 34 41 38 31 43 41 37 37 35 33 34 35 37 38 39 39 39 39
36 36 39 33 34 34 42 38 40 40 26 49 40 44 43 40 35 34 34 33 34 36 36 37 38 39 40
36 31 34 39 40 40 38 40 44 44 40 47 43 46 41 40 35 34 35 30 31 31 31 33 35 36 38
30 34 36 37 36 36 39 41 40 40 31 39 45 42 40 45 39 22 22 25 26 30 34 35 32 34 37
28 30 31 31 29 28 33 35 40 43 38 36 33 42 47 46 34 23 26 34 30 29 30 31 33 33 36
34 32 27 26 23 22 28 33 39 45 36 30 40 35 31 36 31 41 37 35 33 33 31 32 32 34 37
28 29 29 27 26 28 27 29 36 41 39 31 39 39 30 42 48 44 41 39 39 35 33 32 34 33 39
29 31 31 30 29 29 31 32 32 36 37 31 36 36 38 42 45 47 43 41 40 39 37 40 43 42 38
31 31 31 32 33 33 33 32 32 33 31 30 32 33 34 40 44 47 42 45 35 39 41 45 47 45 46
28 31 33 34 34 32 33 34 35 36 31 31 30 27 32 35 38 44 42 39 44 43 45 47 47 44 43
30 32 34 34 32 32 34 35 33 36 38 36 33 31 31 33 36 39 37 39 41 44 44 46 48 43 40
30 32 33 32 34 34 34 33 33 36 36 38 38 39 36 34 24 28 36 40 42 41 41 43 47 45 37
31 33 32 32 33 36 35 34 35 36 37 38 34 34 35 37 46 30 33 38 42 44 41 39 40 42 33

GFSFLT2_850_spd_018.txt.gz
Wind_Speed
36 33 31 31 32 34 35 34 37 40 35 31 33 33 35 35 35 36 36 36 36 35 35 35 35 35 36
34 33 32 37 37 34 33 33 42 34 29 34 34 34 35 35 35 35 35 35 35 34 34 35 36 37 37
38 36 37 35 34 36 38 41 30 38 33 36 35 34 34 32 33 33 34 35 35 35 36 35 36 37 37
36 38 36 36 31 38 38 34 45 42 40 36 34 34 35 33 34 33 31 32 32 31 31 33 34 35 35
35 37 31 41 35 32 38 47 43 42 36 41 40 41 38 36 35 32 29 30 32 33 33 32 34 34 34
35 39 38 33 35 43 42 43 43 37 39 45 41 42 42 39 36 33 33 30 31 33 33 32 31 32 33
35 33 36 38 40 41 41 38 42 46 42 44 43 48 43 41 40 36 34 32 27 27 28 29 30 32 33
30 33 34 35 35 36 36 39 42 40 36 36 49 47 47 44 41 30 21 22 23 25 30 32 32 33 33
26 28 29 29 26 29 33 35 42 45 42 39 42 47 48 45 36 31 35 31 29 28 27 29 31 31 32
33 32 26 27 26 24 27 34 41 47 39 32 43 37 36 38 36 45 41 36 32 31 31 29 27 29 31
30 29 28 27 28 28 29 31 36 41 39 33 41 41 33 46 46 46 44 41 40 36 32 27 26 29 32
29 31 32 32 32 33 31 29 29 35 36 33 36 37 40 44 49 48 45 42 41 38 30 35 32 31 31
30 30 31 33 34 33 28 30 33 34 32 30 32 33 34 41 46 47 45 44 32 33 39 38 39 39 41
28 29 32 34 33 32 35 35 38 37 31 30 31 32 34 36 39 44 40 40 42 41 41 43 41 40 39
28 31 33 33 33 33 34 36 36 38 39 34 33 34 32 33 36 37 37 39 42 42 43 41 42 40 41
28 30 33 34 35 35 35 34 36 38 39 38 39 38 39 35 25 30 37 39 41 39 39 40 44 43 39
29 31 33 33 33 37 37 36 37 38 38 39 38 37 38 40 41 28 32 40 39 41 40 38 41 41 34

GFSFLT2_850_spd_021.txt.gz
Wind_Speed
35 36 35 37 34 32 31 29 31 35 31 30 28 30 32 31 31 32 33 34 33 33 33 33 34 33 33
34 34 35 35 33 31 28 33 36 33 28 30 32 30 32 32 30 32 32 33 33 32 33 33 34 34 34
34 34 36 36 34 33 41 34 35 38 35 33 34 28 28 29 30 31 32 33 33 32 32 33 33 34 33
32 36 38 34 32 39 40 39 44 38 38 33 29 32 29 31 31 31 29 29 29 29 30 31 31 32 32
34 36 32 38 37 37 43 45 42 41 39 31 40 34 34 35 33 30 28 29 31 32 32 31 31 30 30
32 36 39 35 37 39 40 42 42 37 37 46 36 38 39 39 35 33 32 31 30 32 34 32 29 29 28
34 34 34 34 35 37 37 36 39 44 44 47 39 43 42 40 38 33 28 25 27 27 26 26 26 27 28
32 32 29 29 32 34 35 36 39 38 36 41 44 45 42 42 37 27 25 28 25 25 27 31 31 30 31
25 25 25 28 24 25 29 32 39 41 38 38 39 45 45 42 33 28 35 32 32 27 26 27 29 31 33
29 30 27 22 21 23 28 32 36 40 36 33 40 39 28 36 24 40 39 39 34 32 28 27 27 30 33
30 28 25 23 25 26 28 29 33 35 35 33 38 37 31 42 42 43 43 41 38 34 30 27 22 22 28
27 28 27 27 29 29 28 26 27 34 35 30 33 33 36 42 46 46 42 39 37 36 29 28 28 27 29
27 28 26 28 31 31 28 28 30 30 29 29 30 31 32 38 44 45 43 41 30 29 34 33 33 33 35
27 27 27 29 31 30 33 34 37 36 28 30 30 30 34 36 38 43 40 38 38 36 36 36 36 36 37
27 27 29 31 31 30 33 37 37 39 38 32 29 32 33 33 36 37 37 39 39 39 40 41 39 38 38
26 27 30 31 33 34 35 35 37 37 38 37 38 38 37 37 29 32 38 40 40 39 38 39 44 40 36
26 28 30 33 35 36 36 35 36 37 37 38 37 37 38 38 41 28 31 37 36 39 38 40 40 42 36

GFSFLT2_850_spd_024.txt.gz
Wind_Speed
32 32 32 32 32 31 30 27 29 29 25 25 26 25 29 28 28 30 30 31 31 32 33 33 34 33 34
32 32 33 33 35 34 29 33 28 28 29 27 27 27 27 27 26 27 29 30 31 32 33 33 35 34 35
33 32 34 36 37 35 37 34 32 33 31 30 29 27 24 25 27 27 29 30 31 32 32 32 32 33 33
30 33 35 37 37 39 38 36 36 34 34 32 25 27 30 27 26 29 31 30 30 30 29 30 32 32 33
29 34 36 38 39 37 38 37 39 37 35 29 37 39 29 28 30 32 29 28 29 31 33 33 33 33 33
30 34 39 38 35 33 34 38 41 36 35 44 37 39 35 35 34 31 31 31 31 32 31 32 32 32 31
32 35 35 32 29 33 35 38 40 39 40 46 40 42 35 33 33 33 30 28 26 28 29 29 28 28 28
31 31 28 27 29 33 36 36 38 38 35 45 41 37 38 39 36 29 24 21 26 26 27 29 32 32 32
25 23 25 26 27 28 29 32 40 42 38 30 37 43 45 42 32 27 30 31 30 32 32 31 30 30 33
27 27 25 25 23 22 26 31 35 39 29 35 40 39 29 34 29 39 36 35 35 33 31 30 30 30 34
26 26 26 25 23 23 25 28 32 36 36 32 41 38 32 42 41 42 41 40 37 36 32 29 27 27 32
25 27 28 26 25 26 27 27 28 32 34 32 36 35 37 42 46 45 42 41 39 38 31 22 25 26 27
26 28 27 27 28 29 29 28 31 32 31 31 31 32 33 38 44 46 45 43 36 29 33 31 31 30 31
26 27 26 27 28 28 32 34 37 37 32 28 29 29 34 36 38 44 42 42 38 34 34 35 33 32 33
25 26 27 29 30 31 32 35 36 37 37 31 29 31 33 34 37 39 38 38 38 39 38 40 38 35 34
23 24 28 31 34 34 33 31 34 35 37 36 36 37 38 38 30 33 39 41 41 40 37 38 44 38 36
22 26 29 31 32 32 31 32 35 35 36 37 38 37 38 39 42 30 33 39 36 37 36 36 39 41 36

GFSFLT2_850_spd_027.txt.gz
Wind_Speed
29 29 30 31 31 31 32 31 31 30 28 27 26 26 27 28 28 29 29 29 29 29 30 31 32 32 32
31 30 31 31 32 34 33 31 30 28 27 26 26 27 26 27 28 27 27 28 29 30 31 32 33 33 34
30 30 32 33 35 36 36 35 31 28 27 28 27 23 24 24 26 29 30 29 29 30 32 32 33 33 33
29 29 32 34 34 39 40 35 33 30 31 25 23 27 29 27 27 26 28 29 31 32 31 31 31 32 32
27 31 33 35 37 38 36 34 36 35 32 30 35 35 31 31 31 30 30 30 31 29 30 32 33 34 34
27 30 34 37 37 33 31 35 40 33 38 41 37 39 37 33 28 28 30 31 31 31 32 33 33 32 32
28 32 35 34 29 31 31 35 39 39 38 47 42 41 32 31 31 32 31 29 28 30 31 30 31 31 30
30 32 29 27 29 31 35 38 38 36 34 45 42 38 39 39 36 29 24 25 28 28 28 29 30 32 33
25 25 24 26 27 29 32 32 38 39 37 29 39 43 45 43 35 32 34 33 32 32 33 33 33 34 35
25 25 25 23 24 24 26 29 32 39 29 32 39 36 32 38 38 42 39 37 35 34 33 31 30 32 35
26 24 24 25 25 24 24 27 32 35 38 32 39 40 34 45 47 45 42 41 40 37 33 31 28 27 31
24 25 26 26 25 25 26 27 29 33 34 32 37 36 38 42 47 46 44 43 40 38 32 25 25 25 25
24 25 26 27 26 27 28 30 34 34 31 28 30 32 32 38 45 46 46 44 35 32 35 33 31 28 29
24 25 25 25 27 29 32 32 35 35 32 29 28 29 34 36 38 44 42 42 40 35 35 36 33 31 30
22 23 24 28 30 30 30 32 35 37 38 32 31 32 33 35 35 36 37 38 37 39 38 40 35 32 32
20 21 26 28 30 30 30 33 36 36 37 37 38 38 39 39 29 31 38 41 41 41 39 39 44 38 36
19 23 25 26 30 32 33 36 38 38 39 39 39 38 38 39 43 33 33 40 39 38 38 37 39 40 35

GFSFLT2_850_spd_030.txt.gz
Wind_Speed
27 26 28 30 30 30 29 31 31 30 29 28 26 24 24 25 26 26 28 29 29 30 29 29 29 30 30
28 28 29 29 30 31 31 30 31 28 25 23 24 25 25 25 24 26 27 27 28 30 30 31 31 31 32
29 28 30 30 32 32 33 33 29 25 24 25 23 21 21 23 24 26 28 29 30 30 31 31 32 33 33
27 28 29 30 32 34 37 33 30 27 26 24 22 25 23 25 27 28 29 30 30 30 31 33 34 34 33
26 28 31 31 32 33 34 31 32 29 30 30 30 29 27 28 28 25 24 24 27 28 29 31 32 33 33
25 28 30 32 32 30 28 32 36 33 38 39 33 34 34 29 27 27 26 28 29 30 30 32 33 33 34
25 28 30 29 26 27 29 32 35 36 38 44 38 39 33 34 31 30 27 24 22 24 27 28 29 30 31
25 27 25 22 24 28 32 34 36 34 32 40 38 38 39 39 36 28 26 27 27 27 28 28 29 30 31
21 21 22 22 23 26 28 31 36 36 34 29 39 43 44 42 36 37 38 34 32 32 32 31 30 31 33
21 19 18 18 20 22 25 27 29 35 28 29 40 39 31 39 41 41 39 37 34 33 32 31 30 30 34
20 19 19 20 21 21 22 25 29 32 35 30 38 38 35 43 46 44 41 39 37 35 32 29 26 24 29
19 20 21 22 21 22 23 26 28 32 31 26 31 31 34 39 45 46 43 41 38 35 29 26 26 24 25
20 21 22 22 22 24 25 25 27 26 26 24 25 26 30 36 42 45 44 41 34 31 34 32 30 28 29
22 23 22 21 24 24 26 28 31 31 31 29 28 29 32 34 35 41 38 40 36 35 35 36 34 32 31
21 21 20 23 23 24 28 30 33 35 33 30 31 31 31 35 37 34 35 38 39 39 39 40 36 33 32
19 18 21 23 24 28 31 31 33 33 36 36 36 36 36 37 27 31 37 40 41 40 38 38 41 36 36
18 18 21 21 25 30 32 31 33 37 40 40 38 37 38 37 43 31 33 41 36 37 36 36 39 40 34

GFSFLT2_850_spd_033.txt.gz
Wind_Speed
21 21 23 24 26 28 28 28 30 28 29 29 27 25 23 24 25 26 26 27 27 28 28 29 29 29 30
24 23 24 24 26 27 27 27 29 28 27 24 22 23 24 23 23 23 24 25 27 28 29 30 31 31 32
27 25 26 25 26 27 29 29 28 25 22 20 20 21 19 21 23 24 26 28 30 30 30 30 31 31 31
26 26 27 25 26 28 29 29 28 23 22 18 19 22 20 20 23 25 27 28 28 28 28 29 31 32 33
25 25 26 23 21 25 28 27 26 24 22 23 26 23 21 22 24 23 23 25 26 27 28 29 31 32 33
24 24 22 24 26 26 25 24 24 23 27 29 29 27 25 25 25 25 25 26 28 29 29 31 31 31 32
23 23 24 23 25 22 24 25 28 29 31 33 30 31 27 29 27 27 25 20 22 24 27 29 30 30 31
22 22 23 20 19 24 25 25 27 29 26 26 29 31 33 34 33 27 23 25 26 24 26 28 29 31 33
21 19 18 18 18 21 23 24 27 26 26 22 34 34 37 37 32 30 30 29 29 29 28 29 30 31 32
16 15 14 14 15 18 20 22 23 27 24 28 33 32 23 36 35 37 35 32 28 28 28 28 28 29 32
15 13 13 13 14 15 16 19 23 27 27 23 32 31 27 33 39 38 39 39 36 34 31 25 20 21 25
13 13 14 14 13 14 17 19 22 24 21 24 30 29 31 37 41 40 37 39 38 33 26 26 27 24 26
13 14 16 15 13 16 15 18 23 23 22 20 23 25 28 34 39 41 40 34 28 30 30 31 31 29 30
15 17 16 14 15 16 19 23 27 25 23 23 26 29 32 34 35 41 35 34 34 32 34 34 34 31 30
16 17 15 16 17 16 20 24 27 30 31 28 29 30 30 32 34 34 32 36 35 39 37 37 35 32 31
16 17 16 17 20 18 22 26 29 30 32 33 32 32 33 34 25 30 37 37 38 35 35 35 42 35 32
18 17 17 19 20 20 24 28 31 32 34 35 34 33 33 35 37 26 32 37 35 38 35 36 38 37 33

GFSFLT2_850_spd_036.txt.gz
Wind_Speed
20 19 23 24 22 29 30 30 30 31 31 32 32 30 27 25 25 25 25 25 25 26 27 27 27 28 28
23 24 23 19 23 30 31 30 30 30 31 30 28 27 26 25 24 25 24 24 25 26 27 28 28 28 29
19 21 18 22 26 27 25 27 28 28 29 25 23 24 22 23 25 26 26 27 28 29 30 30 30 31 31
17 19 24 24 23 22 20 20 23 24 25 23 22 21 23 24 24 25 26 29 29 29 30 30 29 30 30
19 20 20 14 15 16 19 20 21 23 21 19 20 22 23 22 23 24 25 26 28 29 30 30 30 31 31
18 15 14 14 15 16 17 19 21 19 15 22 23 25 24 22 23 25 25 27 28 29 29 29 30 31 32
17 16 16 15 18 22 17 18 22 23 23 26 23 25 22 24 25 26 26 24 24 24 27 29 29 31 31
18 17 17 17 15 18 20 21 21 22 19 26 23 22 23 25 27 24 21 22 23 23 24 27 28 30 31
22 23 20 19 18 18 18 17 21 22 20 21 21 20 24 28 22 24 28 27 25 24 26 28 29 30 32
13 15 15 15 14 16 17 20 20 21 10 18 20 20 17 26 23 28 28 31 30 30 28 27 27 29 32
14 12 12 12 13 15 17 19 21 24 21 19 29 28 23 29 34 33 33 33 33 35 33 28 25 23 26
12 11 12 14 15 15 15 19 21 23 21 23 29 27 29 35 39 40 38 34 32 34 29 27 28 26 26
11 13 14 16 16 15 16 17 21 22 20 17 23 26 29 34 39 41 38 36 27 26 31 29 30 29 31
13 15 16 17 16 16 19 19 23 24 22 22 23 26 31 32 33 40 37 32 32 29 29 31 30 29 30
16 17 18 18 17 17 20 21 24 26 27 25 24 26 28 30 33 33 33 35 33 33 33 36 35 34 32
17 19 20 20 20 20 20 20 24 27 29 29 29 30 32 33 25 32 35 35 36 35 32 35 39 33 30
18 20 21 21 20 22 22 22 26 28 31 30 28 27 31 36 32 23 31 37 35 34 34 33 38 39 33

GFSFLT2_850_spd_039.txt.gz
Wind_Speed
26 23 23 23 25 29 31 32 30 30 31 33 34 35 34 31 28 26 25 25 23 23 23 24 25 26 26
24 26 27 27 28 28 28 26 30 31 31 34 32 30 28 27 26 26 26 25 24 24 24 24 25 26 27
21 22 24 25 25 24 23 27 28 29 28 28 27 26 25 24 25 25 26 27 26 26 26 26 27 28 29
20 20 21 22 22 21 22 21 23 25 27 27 25 23 22 23 23 24 25 26 26 27 27 28 29 30 29
16 16 17 17 16 14 17 23 23 25 27 23 18 21 23 22 22 23 24 25 26 27 28 29 30 29 30
13 14 14 11 12 15 18 22 28 23 15 21 23 25 24 22 22 22 24 25 27 28 30 30 30 30 30
11 11 12 13 19 22 24 21 23 23 21 25 22 25 23 22 21 22 23 23 23 24 26 28 28 29 30
13 14 16 18 17 17 19 21 22 21 16 25 24 27 24 22 21 21 18 20 22 23 24 26 27 28 29
15 18 19 19 18 19 20 20 22 22 19 22 19 24 26 26 19 18 25 27 27 28 27 27 28 28 30
14 13 14 14 13 15 16 19 19 20 6 17 22 25 22 27 27 32 32 33 33 31 31 30 29 29 33
14 11 10 10 11 13 15 18 21 24 21 18 25 27 28 36 38 35 36 36 36 35 33 32 29 25 29
10 9 10 12 15 17 18 20 21 23 21 21 28 27 29 35 40 39 37 35 35 34 29 27 26 27 28
9 11 13 15 17 19 19 19 21 21 20 19 21 24 28 34 38 39 40 40 30 27 28 29 29 30 33
12 13 15 16 18 18 19 19 23 24 21 20 20 23 30 32 34 40 38 37 37 32 29 29 27 28 31
14 15 16 17 18 18 20 21 24 27 26 22 20 23 28 30 35 36 36 37 37 36 35 38 37 34 33
15 16 17 19 21 21 20 22 25 27 27 27 27 28 31 33 29 33 35 38 40 39 36 37 39 35 32
16 17 19 21 22 23 23 24 28 29 30 30 30 28 32 36 33 25 34 39 38 35 35 37 40 38 36

GFSFLT2_850_spd_042.txt.gz
Wind_Speed
34 29 27 30 30 29 27 27 29 31 33 30 29 32 32 33 30 28 26 24 22 20 19 19 20 20 21
27 21 22 27 26 27 29 31 30 27 25 27 31 30 26 25 24 23 23 21 21 20 20 20 21 21 21
20 21 22 26 26 28 27 25 24 24 24 23 23 25 24 23 22 22 21 21 22 23 22 22 22 23 23
17 18 20 21 21 22 21 19 19 19 21 23 24 25 22 19 19 19 20 21 22 23 22 22 23 24 25
12 14 15 17 16 14 16 16 19 20 24 26 21 18 17 19 19 19 20 20 19 20 21 22 23 25 26
11 13 13 11 9 11 16 20 23 22 18 20 20 17 15 15 16 15 16 17 19 20 22 23 24 26 27
10 10 10 11 14 17 20 22 22 19 19 22 17 17 15 15 14 14 16 17 18 18 20 23 24 25 26
12 12 14 15 17 18 19 21 20 19 17 25 18 17 15 14 15 15 12 13 17 19 21 24 25 25 26
11 12 15 16 17 17 16 17 19 18 15 18 15 21 20 17 11 11 20 20 22 23 23 24 25 26 28
16 16 14 13 11 11 12 14 15 17 6 14 21 22 20 17 21 23 23 24 25 25 25 25 24 26 30
14 12 9 8 8 10 12 14 17 19 20 18 23 23 25 31 29 27 28 27 27 27 26 23 22 21 24
10 9 9 10 12 15 17 19 21 22 20 21 25 23 26 31 35 31 30 28 28 25 25 25 22 22 24
8 9 10 12 13 16 18 19 20 19 19 19 20 21 25 30 34 35 37 33 26 31 28 29 27 24 27
10 12 13 15 16 17 19 20 21 21 20 19 20 22 26 28 31 37 35 37 35 32 33 34 30 27 26
13 13 14 16 16 17 18 20 22 24 24 23 21 21 25 29 33 36 36 36 35 35 35 38 33 29 31
13 15 17 17 19 19 19 20 22 23 25 25 26 27 30 34 32 33 35 38 37 38 38 39 38 33 32
15 16 18 20 21 22 22 23 25 25 25 25 25 26 31 36 35 29 31 35 40 40 35 36 39 38 34

GFSFLT2_850_spd_045.txt.gz
Wind_Speed
33 30 30 34 35 37 30 29 25 26 23 27 31 29 27 29 31 30 27 25 23 20 19 19 19 19 19
29 27 27 31 29 30 27 26 26 23 26 29 29 26 27 27 24 23 22 21 19 19 18 19 19 19 19
23 24 24 23 25 25 22 21 24 25 27 26 21 21 23 23 23 21 19 19 19 19 19 20 20 20 21
13 18 19 19 19 19 19 21 21 19 18 18 19 22 24 23 19 19 19 20 21 20 19 20 20 20 21
12 14 16 16 16 16 17 16 16 17 20 17 22 18 17 18 19 18 19 19 19 18 18 19 20 20 22
11 12 12 12 12 13 13 13 15 17 17 19 18 14 13 14 15 16 15 15 15 16 17 19 20 22 23
11 12 11 11 12 13 14 17 21 20 21 22 12 10 10 11 10 10 11 12 13 13 15 17 19 21 22
11 10 11 12 14 17 17 19 20 18 15 20 11 10 9 9 11 10 6 6 12 14 17 20 23 24 24
10 10 11 13 14 16 16 16 16 13 11 16 8 16 13 9 7 5 11 11 14 17 18 20 22 25 27
15 16 16 13 12 12 11 11 11 10 3 12 17 16 10 9 7 16 12 13 14 16 18 20 21 24 26
15 12 9 7 7 8 9 11 14 16 16 16 21 19 19 22 23 18 15 17 17 16 15 15 19 21 24
8 7 7 8 9 10 12 15 18 21 20 20 24 22 24 28 31 26 24 22 23 18 17 19 20 20 22
7 7 9 10 11 12 13 16 19 19 20 19 21 22 23 28 33 34 32 29 25 23 25 24 24 23 25
9 10 11 12 13 15 16 16 19 18 17 17 19 21 25 28 29 35 33 36 33 30 29 29 29 27 25
13 13 12 12 13 14 15 17 19 20 19 18 19 21 24 27 31 34 36 36 34 32 31 32 33 30 26
12 12 14 14 16 16 17 18 20 21 22 21 22 24 25 28 28 31 29 32 33 32 33 37 39 32 29
13 14 15 17 19 20 20 21 22 24 24 24 23 25 30 35 34 27 27 29 34 39 37 35 37 36 32

GFSFLT2_850_spd_048.txt.gz
Wind_Speed
29 26 32 29 33 36 39 38 33 29 31 28 27 28 24 25 29 28 28 26 24 23 21 20 20 20 20
27 22 25 24 26 27 27 31 30 28 27 22 24 25 27 29 27 21 23 24 24 22 21 19 19 20 19
20 20 20 22 24 24 25 26 24 24 22 22 24 25 23 21 22 23 23 21 20 20 19 19 19 19 19
11 13 13 14 18 19 21 20 20 21 21 19 16 19 22 25 25 26 24 24 22 21 20 19 19 19 18
7 8 8 11 12 13 15 17 18 17 16 15 20 22 21 22 22 22 22 22 21 20 18 17 17 18 18
8 9 9 10 12 14 15 14 13 13 14 16 20 20 20 20 18 18 17 17 18 17 17 17 18 18 19
10 11 11 10 10 10 11 14 16 18 21 25 19 16 14 14 15 15 15 16 16 15 16 16 17 18 20
9 9 10 11 12 15 16 18 20 20 19 22 12 12 12 11 14 15 15 14 12 13 17 19 20 23 25
10 9 10 12 13 17 16 15 16 13 11 15 11 12 12 13 14 14 13 9 13 14 17 19 22 24 25
14 16 17 16 15 17 16 14 12 10 5 9 15 15 8 8 12 15 12 12 13 13 16 17 20 21 21
14 13 12 11 10 10 10 11 13 14 13 16 20 17 16 19 16 19 21 18 16 16 15 16 15 20 22
9 8 8 8 10 11 13 14 16 18 18 20 25 22 21 24 29 24 22 22 23 21 19 17 20 21 23
8 8 10 11 12 14 14 16 18 19 20 21 21 21 21 25 30 30 30 28 28 24 19 26 26 25 27
10 11 12 14 14 14 16 16 17 15 14 15 16 18 23 26 29 32 30 33 32 32 31 31 29 28 28
14 14 13 13 13 14 15 16 18 18 16 14 15 17 20 22 27 29 28 30 29 27 28 31 30 29 31
13 14 14 15 16 15 16 18 20 20 20 19 19 22 24 26 25 27 26 30 27 27 28 33 37 31 31
14 14 15 17 18 18 19 21 22 22 22 22 22 23 29 34 33 26 26 25 29 33 32 35 37 36 33

GFSFLT2_850_spd_051.txt.gz
Wind_Speed
25 26 26 26 24 23 21 25 30 26 27 29 26 26 28 28 24 21 23 25 25 25 22 21 20 20 20
27 26 23 20 21 19 21 22 27 28 28 27 27 23 24 24 24 26 27 23 23 24 23 21 20 20 18
20 20 17 15 16 18 20 20 22 23 24 22 22 22 23 23 21 19 23 26 24 21 21 21 20 20 19
11 11 11 11 12 13 16 17 18 19 20 20 19 21 22 21 24 25 26 26 26 26 25 22 21 20 19
7 8 8 9 9 10 11 14 15 17 17 17 17 18 18 22 25 26 26 24 24 23 22 20 19 17 16
9 9 9 9 10 11 12 13 13 12 13 14 18 19 20 24 26 26 24 21 21 21 18 16 16 18 17
11 10 10 10 11 11 12 13 15 16 20 23 22 23 22 22 21 20 18 17 18 18 17 16 17 17 17
10 10 10 11 12 13 15 16 18 19 20 25 21 15 14 16 18 17 16 16 17 18 18 16 17 19 20
10 10 10 11 13 16 18 16 16 14 12 16 14 14 12 14 17 18 19 21 16 14 17 19 21 22 23
13 15 16 16 16 16 15 14 12 9 5 9 13 17 9 9 10 11 14 18 15 15 17 18 20 21 21
13 12 11 10 9 9 9 10 12 12 12 16 19 20 17 21 18 14 16 23 21 23 21 21 22 22 22
11 10 9 8 9 10 11 13 15 16 15 18 23 23 23 25 28 22 19 21 25 24 25 24 24 27 24
10 9 10 11 11 13 14 16 18 17 18 17 20 21 21 24 28 28 29 27 25 22 18 19 21 25 31
11 12 13 14 15 14 14 15 17 13 14 16 17 18 21 23 25 27 26 30 27 26 26 27 27 28 29
14 16 14 14 14 15 15 16 17 18 16 13 15 18 21 23 28 28 28 30 28 27 27 30 29 27 27
16 16 16 16 17 17 16 17 20 21 21 19 19 22 25 27 25 27 25 28 26 26 25 30 34 29 30
17 17 18 19 20 20 20 20 23 23 23 23 22 22 26 33 35 26 24 25 30 32 28 30 36 33 31

GFSFLT2_850_spd_054.txt.gz
Wind_Speed
22 25 25 26 24 23 19 16 13 8 21 25 28 30 32 26 28 27 27 19 20 23 19 19 17 18 17
24 23 22 21 21 18 14 13 10 17 22 25 23 23 23 22 25 20 21 23 26 23 20 20 20 18 17
17 16 16 15 14 14 13 12 11 15 20 24 24 27 24 21 21 22 21 21 23 25 24 22 19 18 18
8 10 12 11 10 11 11 11 11 12 14 15 17 19 22 24 24 25 26 25 24 25 24 22 22 20 18
8 9 10 10 9 10 10 10 11 11 12 14 15 17 17 18 19 21 23 24 25 24 23 21 18 19 18
9 9 10 10 11 11 12 12 11 12 13 12 14 15 16 19 22 25 25 25 23 21 22 21 18 14 16
9 9 9 10 12 12 13 14 15 16 20 21 18 20 20 21 22 22 20 18 16 15 15 14 14 14 16
10 10 10 11 11 12 13 15 17 16 17 20 19 15 13 14 15 14 13 13 13 14 13 13 14 15 17
10 10 11 12 15 16 17 17 17 15 12 12 12 13 12 11 12 14 14 15 17 17 16 16 16 18 20
11 12 13 13 13 14 13 12 11 8 6 12 15 16 9 8 6 9 10 12 16 17 16 17 18 20 21
11 10 9 9 8 8 8 9 10 11 13 16 17 19 19 21 17 13 16 15 16 20 21 19 22 25 26
10 9 8 8 9 9 11 12 13 14 14 17 22 20 21 24 25 19 17 15 19 22 26 30 29 30 31
9 8 9 10 11 12 13 16 16 15 16 16 18 18 20 23 25 25 25 22 18 14 15 18 21 23 27
10 10 12 14 14 14 14 14 16 12 11 14 17 20 22 23 24 28 24 28 26 23 24 24 24 25 26
12 13 14 15 15 15 15 16 17 17 15 11 14 20 24 26 30 28 26 27 27 26 26 28 26 23 23
14 15 16 16 17 17 17 17 18 19 21 20 20 21 23 26 26 25 26 27 22 22 24 29 33 27 24
17 17 17 18 20 20 20 20 21 22 22 22 22 22 25 29 32 26 25 22 26 28 28 29 33 32 26

GFSFLT2_850_spd_057.txt.gz
Wind_Speed
16 17 20 19 19 17 18 13 13 13 10 12 20 21 23 27 31 30 31 30 30 28 19 26 21 20 20
17 18 16 11 12 12 9 11 11 8 11 13 15 18 21 25 24 27 25 24 23 24 26 22 21 23 23
13 10 6 9 8 8 8 8 8 8 13 21 21 22 24 26 24 23 21 21 22 22 24 26 25 23 17
5 5 6 7 8 8 8 9 8 8 9 12 15 18 21 22 23 24 24 25 25 24 24 25 24 23 21
5 7 9 9 10 10 10 10 10 10 10 12 12 14 15 17 18 20 22 23 23 23 24 25 25 23 19
6 7 9 10 10 10 10 10 9 11 11 11 14 14 17 18 19 20 21 22 23 24 24 24 23 21 17
7 7 8 9 10 10 11 11 12 14 17 17 14 14 16 17 19 20 20 20 20 19 18 18 16 14 16
7 8 9 9 10 11 12 13 14 14 15 15 13 9 9 12 11 11 11 12 12 13 12 12 13 14 16
8 9 9 11 13 12 12 12 11 9 7 6 10 13 10 7 7 8 8 10 12 14 14 14 15 17 17
9 9 9 9 9 9 8 7 7 5 5 10 11 12 8 6 5 11 12 10 11 13 15 16 16 17 18
7 7 6 6 6 5 6 7 7 7 11 12 13 15 14 18 16 14 10 11 15 16 17 18 20 21 22
7 6 6 6 6 8 9 10 11 12 12 14 18 17 17 21 22 17 17 14 14 15 19 22 24 29 31
7 6 6 7 9 11 11 13 13 12 13 13 14 16 18 21 24 25 23 20 16 8 10 17 19 22 26
7 7 8 10 10 11 11 12 14 11 12 13 15 18 20 22 23 26 24 24 22 22 21 22 23 23 25
8 9 9 11 11 12 13 14 15 14 13 12 15 20 23 24 28 26 25 26 23 22 24 24 22 20 21
10 11 11 13 14 15 15 15 16 17 18 18 20 21 22 24 24 23 25 26 23 18 20 25 27 25 24
13 13 14 15 16 17 18 19 19 19 20 21 21 21 24 28 30 25 26 23 24 24 23 26 30 29 29

GFSFLT2_850_spd_060.txt.gz
Wind_Speed
17 19 20 22 23 19 16 17 13 12 16 10 8 13 15 14 18 19 19 22 28 31 36 34 30 23 27
18 20 21 18 11 12 8 9 10 10 9 8 13 14 13 16 19 22 27 28 26 29 30 27 24 30 25
17 17 14 8 7 7 7 6 8 9 9 12 18 19 19 22 26 27 28 29 26 26 25 24 27 28 29
10 8 7 8 8 8 8 8 10 10 11 12 14 16 21 22 23 24 24 22 22 22 23 23 24 24 25
6 7 8 9 9 9 9 9 11 10 11 12 13 15 17 17 18 19 20 23 25 25 25 25 24 25 24
7 7 10 10 9 9 10 9 6 12 10 11 13 14 17 17 18 18 19 20 21 22 23 24 25 25 25
8 8 9 10 10 10 10 10 9 13 15 11 11 10 12 14 16 17 18 20 21 22 23 23 22 21 20
8 9 9 9 9 9 10 11 10 11 10 6 7 6 8 10 9 9 10 11 13 13 13 14 14 15 17
7 8 8 9 8 9 8 8 6 6 7 5 7 10 8 6 6 5 6 7 10 12 13 14 15 16 17
8 8 8 8 8 7 6 5 4 4 5 7 8 10 6 7 5 14 10 11 11 11 14 16 17 19 17
7 7 7 6 6 6 6 6 6 7 11 10 10 11 10 14 12 11 9 10 13 14 15 17 18 20 22
7 7 7 7 7 8 9 10 10 11 13 13 15 14 14 17 16 14 14 15 15 14 16 17 18 21 24
8 8 8 9 9 11 12 13 13 12 12 13 14 15 16 18 21 22 20 18 18 12 10 17 19 21 23
10 10 10 10 10 11 11 12 14 12 12 13 14 16 18 20 22 25 23 21 20 21 21 23 24 24 24
11 11 12 12 12 12 13 14 14 14 13 14 15 17 20 23 27 26 24 25 24 22 24 26 24 22 22
12 13 13 14 15 15 15 15 16 16 17 17 18 19 20 22 23 23 22 24 25 24 23 26 27 23 24
14 14 15 16 16 17 17 18 19 19 20 21 21 21 20 22 25 28 25 19 24 25 25 26 29 28 28

GFSFLT2_850_spd_066.txt.gz
Wind_Speed
19 21 21 19 18 20 20 16 13 10 11 12 7 3 4 3 4 5 7 9 8 11 13 15 16 19 21
17 17 17 17 19 18 13 11 10 11 12 9 8 5 6 6 7 7 8 11 13 14 14 16 18 18 20
17 18 15 15 14 11 8 9 9 9 11 11 10 10 11 12 14 16 16 16 18 19 21 22 22 22 24
11 11 10 8 9 9 10 11 10 10 11 12 12 11 11 13 15 18 20 22 23 22 23 23 23 24 23
9 8 8 8 6 8 10 10 11 11 10 12 13 12 14 15 15 15 16 17 19 20 20 20 19 20 19
10 8 9 9 10 9 10 10 8 10 9 9 13 13 13 15 15 16 16 17 18 19 19 20 19 19 18
10 10 12 10 11 11 12 11 9 10 10 7 8 7 9 9 8 9 10 10 11 13 15 17 19 20 21
10 10 11 11 11 10 10 10 9 8 6 4 5 4 6 8 6 6 5 6 7 7 8 10 11 13 15
9 10 9 10 10 10 10 9 6 6 5 6 5 7 8 6 4 5 4 8 8 9 9 10 11 12 13
8 7 7 8 8 8 8 7 5 5 4 6 8 9 5 5 2 9 9 9 8 8 10 11 13 14 15
7 6 7 7 6 6 6 6 7 8 11 10 9 12 10 13 10 12 11 9 10 12 13 13 14 14 16
7 7 8 8 6 6 7 9 9 11 13 13 15 14 15 18 16 13 12 13 14 14 15 14 15 15 15
8 9 9 9 9 9 10 10 11 12 13 14 15 16 17 19 19 19 19 16 14 8 12 15 17 19 19
10 10 11 10 10 11 12 13 12 10 12 12 14 15 16 17 20 21 21 21 20 20 21 19 18 19 21
11 11 12 13 11 12 12 13 15 14 13 14 15 15 16 18 22 22 22 23 20 19 22 23 21 20 18
11 12 13 13 13 13 14 15 16 15 16 15 17 19 21 22 22 20 21 23 20 20 21 24 27 23 23
13 13 14 14 15 15 16 17 18 18 18 18 18 19 22 27 24 20 24 20 22 26 26 25 28 28 26

GFSFLT2_850_spd_069.txt.gz
Wind_Speed
16 20 21 23 24 18 16 16 11 8 7 6 4 1 1 1 2 2 2 3 5 7 8 15 17 22 28
20 19 22 21 18 15 13 10 8 7 7 6 6 5 3 4 5 6 6 7 8 9 11 12 13 14 15
18 17 18 17 15 11 9 8 7 8 8 9 9 9 9 9 10 11 12 14 14 16 15 16 17 17 18
16 15 14 13 8 8 8 9 10 9 11 11 10 10 11 10 11 13 16 16 17 18 20 22 23 23 23
13 13 11 9 7 7 7 10 10 10 11 11 10 11 11 10 11 13 15 15 16 17 17 18 19 20 21
12 11 8 7 8 8 7 9 8 9 9 10 10 10 10 10 10 10 11 13 14 15 16 16 17 17 16
9 10 7 8 10 9 9 10 9 9 8 7 6 6 6 6 5 5 5 5 5 6 8 10 12 14 15
7 9 8 9 10 9 8 8 8 7 5 4 3 3 5 6 5 4 2 2 4 4 5 6 7 8 9
7 8 8 9 9 8 8 7 7 5 4 4 3 3 5 5 4 4 3 5 7 7 7 8 8 9 9
7 6 7 8 8 7 7 6 6 4 4 3 3 3 2 3 3 5 7 8 8 7 8 9 10 11 11
6 6 7 7 6 6 6 6 6 5 6 7 6 7 6 7 7 9 9 7 8 10 11 12 12 12 13
7 8 8 6 6 7 8 7 7 8 9 10 11 10 11 12 11 7 9 12 12 12 12 13 12 13 13
8 9 8 7 7 7 8 9 9 9 10 11 11 12 12 13 16 14 14 11 13 7 9 15 17 18 19
10 10 9 8 8 9 9 11 10 9 11 12 13 14 13 14 17 17 15 15 14 16 19 18 17 19 21
11 11 11 11 9 10 10 11 13 10 10 12 13 14 15 17 20 18 19 20 16 17 20 21 18 18 18
12 12 11 12 12 11 12 13 14 12 14 13 15 17 18 20 19 19 19 20 19 18 18 22 25 21 21
13 12 12 12 13 13 13 14 15 16 16 16 17 18 20 24 25 22 18 20 20 20 21 24 28 24 24

GFSFLT2_850_spd_072.txt.gz
Wind_Speed
13 17 15 13 20 22 24 16 15 12 10 7 5 3 3 4 4 4 5 4 4 8 11 14 17 16 15
16 17 20 21 21 23 16 14 11 9 9 7 6 5 5 5 6 7 6 5 6 6 7 9 12 16 16
21 20 20 20 19 17 12 9 8 9 10 9 8 8 8 9 10 11 10 9 9 10 11 13 13 14 15
19 18 19 18 15 10 10 8 9 10 11 10 10 10 10 10 11 14 14 15 15 15 15 18 18 19 19
17 17 17 15 10 9 10 9 10 11 12 10 10 10 10 12 13 14 15 16 16 18 19 20 20 20 20
14 14 12 11 8 8 8 8 8 11 11 10 10 10 9 10 10 11 12 13 14 15 16 17 17 18 18
10 10 11 9 9 9 9 10 9 11 10 8 8 7 6 5 4 4 4 4 5 7 8 10 12 13 14
9 10 10 10 11 10 9 9 9 9 7 5 6 5 5 5 5 5 4 3 3 3 3 4 5 6 6
9 10 9 10 10 9 8 8 9 7 6 5 6 5 6 6 6 5 6 6 5 6 6 7 7 7 8
7 7 7 7 7 7 7 8 7 6 5 5 5 4 3 6 6 5 7 9 8 8 8 9 9 10 11
7 7 7 7 7 6 6 7 6 7 5 6 6 6 6 5 8 9 10 11 9 10 11 12 13 14 14
7 7 7 7 7 7 8 8 8 8 8 9 10 9 10 10 9 8 9 11 13 13 14 15 16 16 16
8 8 8 8 8 9 9 9 9 10 10 10 10 10 11 12 13 11 11 10 14 15 15 14 15 18 20
8 8 8 8 9 9 10 11 10 10 11 11 12 13 13 14 17 15 13 11 9 14 20 20 19 19 20
9 9 10 10 10 12 11 12 10 9 11 13 15 15 16 17 20 18 17 19 16 17 20 21 19 20 20
9 10 11 12 13 13 13 13 13 12 12 13 16 17 19 20 19 19 18 18 18 19 19 21 22 20 21
12 12 15 15 16 14 14 15 15 15 15 16 16 17 19 23 22 21 20 15 18 20 21 23 25 24 24

GFSFLT2_850_spd_075.txt.gz
Wind_Speed
22 20 22 21 19 16 17 21 25 18 16 10 9 6 6 7 7 5 5 3 3 6 8 13 17 19 21
13 16 17 16 17 19 21 23 16 14 11 9 9 8 5 6 8 8 7 5 5 9 13 13 13 13 12
23 19 20 19 20 21 22 16 12 11 9 9 9 10 9 9 10 10 10 10 10 10 9 11 11 12 14
18 19 19 19 21 22 16 11 11 11 11 11 11 11 11 12 13 15 15 15 15 15 14 15 16 17 17
17 18 19 20 19 16 13 12 12 13 12 12 12 11 11 12 14 14 15 17 18 19 19 19 20 21 21
14 16 16 16 13 12 11 11 11 13 13 12 12 11 11 12 12 13 13 15 16 18 18 19 20 20 20
13 13 12 11 11 11 11 11 12 12 10 11 11 10 9 9 8 7 8 8 9 10 12 14 15 16 18
11 12 12 11 11 11 12 11 11 11 11 9 9 8 8 8 8 8 7 6 5 4 5 6 7 7 8
10 10 11 10 11 11 10 10 9 9 9 8 7 8 8 9 9 9 8 7 5 5 7 7 8 8 9
7 7 7 8 7 8 9 9 8 6 9 9 7 6 5 9 9 9 9 8 9 9 9 10 10 10 10
8 7 7 6 6 6 7 7 8 8 5 7 7 9 8 6 8 10 11 11 11 12 11 12 14 15 15
8 7 7 7 7 7 7 7 8 9 9 10 11 11 12 12 12 11 13 14 13 13 15 16 17 17 17
7 7 7 8 8 7 8 9 10 10 11 12 12 12 12 13 14 12 12 14 16 15 16 19 19 19 17
8 9 9 9 9 9 9 10 11 12 13 13 14 13 14 15 17 16 13 11 10 11 15 17 19 22 22
10 10 10 10 11 11 12 13 13 13 13 14 15 16 16 17 20 18 16 17 15 18 22 23 20 21 23
11 11 12 12 12 14 15 15 15 14 14 15 17 19 19 19 19 19 18 17 14 19 20 21 21 19 21
15 13 14 16 16 15 16 17 17 16 15 16 16 18 19 22 20 21 21 16 15 15 18 23 25 23 22

GFSFLT2_850_spd_078.txt.gz
Wind_Speed
22 20 20 21 20 22 20 17 19 26 22 16 12 9 8 9 8 6 5 4 4 3 5 8 13 13 20
15 14 20 23 22 18 16 18 23 23 16 14 11 11 9 7 7 8 7 5 3 8 8 11 14 17 15
22 22 21 19 18 18 20 23 24 16 12 11 10 11 11 9 9 10 9 10 8 7 10 14 13 13 13
21 20 20 21 20 21 21 22 15 13 12 11 11 12 13 12 12 14 14 13 12 12 12 12 14 14 13
20 19 19 20 19 19 19 18 15 14 13 13 12 12 13 13 14 14 15 16 16 17 17 17 17 19 19
16 17 18 19 18 19 17 14 13 14 15 14 13 12 13 12 12 13 13 14 16 17 19 19 20 21 20
14 14 16 16 13 13 12 12 12 12 10 10 10 11 11 11 11 9 9 10 11 13 14 16 18 19 20
11 13 12 13 11 11 11 12 12 13 12 10 10 9 9 9 9 8 7 6 6 6 7 9 10 11 12
8 8 10 10 10 11 11 11 11 11 10 9 7 7 8 8 9 8 8 7 7 6 6 7 8 8 9
7 7 7 8 8 9 10 10 10 8 9 9 6 6 4 8 9 9 9 9 9 9 9 9 10 9 10
8 6 7 6 6 7 7 7 7 8 6 7 6 7 7 5 5 9 10 10 11 12 12 13 13 12 12
8 6 5 5 6 6 6 6 6 7 8 8 9 9 9 10 9 8 11 14 15 15 15 15 16 16 16
6 7 7 7 7 6 7 7 7 8 9 10 11 12 12 13 13 11 11 13 15 15 17 19 19 18 18
8 8 8 7 7 7 7 8 10 10 11 13 13 13 13 12 14 13 12 12 11 12 15 17 17 17 18
10 9 9 8 8 9 10 12 11 11 12 13 13 13 13 14 15 14 14 16 16 18 21 21 21 21 23
11 11 11 11 11 13 13 13 13 14 14 14 15 15 15 14 14 15 15 15 14 16 18 20 22 20 20
13 13 13 13 13 13 14 15 16 16 15 16 16 16 17 18 18 18 18 16 16 15 16 19 21 22 22

GFSFLT2_850_spd_081.txt.gz
Wind_Speed
18 18 18 19 18 19 19 18 20 18 18 25 20 13 12 12 15 12 9 9 7 3 3 5 14 17 20
19 17 14 14 18 20 22 19 16 17 22 23 16 14 13 11 8 9 9 9 6 8 5 4 12 15 16
20 20 20 19 19 19 18 17 17 20 23 16 12 12 13 10 10 10 11 10 8 7 10 9 10 15 16
22 22 21 21 21 21 21 19 18 22 17 13 11 11 13 11 13 13 13 13 11 10 9 12 11 12 12
20 20 20 19 19 19 20 18 19 19 14 14 13 13 13 13 14 15 15 15 16 16 14 15 15 12 12
20 19 17 17 18 18 17 18 18 13 14 15 14 14 14 14 13 14 14 15 16 17 18 20 19 19 19
16 15 15 15 16 17 17 16 15 11 9 9 11 12 12 12 12 11 10 12 13 15 17 19 20 20 20
12 14 15 14 13 13 13 12 11 12 11 11 11 11 11 10 10 8 7 7 6 7 9 12 14 15 17
8 8 9 10 11 10 10 10 12 11 10 10 9 7 8 9 9 8 8 8 7 7 6 7 7 7 8
7 7 7 8 8 9 9 9 10 8 10 9 7 5 4 8 9 8 9 9 9 9 8 8 8 8 9
9 8 7 7 8 8 8 8 8 9 4 5 6 7 6 4 4 7 9 10 10 10 11 12 11 11 11
10 9 8 9 8 7 7 7 8 7 7 8 7 6 6 7 8 7 9 10 12 13 14 15 14 13 13
10 10 10 10 8 8 7 8 6 6 7 8 9 9 9 11 10 9 9 11 12 13 14 16 16 17 17
10 10 9 8 8 8 9 8 7 7 8 11 11 11 10 11 11 9 10 10 10 12 14 15 16 17 17
11 10 11 11 10 10 9 7 8 8 9 9 10 10 10 11 11 9 10 13 14 16 19 19 20 20 22
13 12 12 11 11 11 10 9 10 11 11 11 11 12 13 11 11 10 12 14 15 16 18 20 21 20 22
14 14 14 14 14 12 12 12 11 13 13 13 13 13 15 17 14 13 14 15 15 16 17 19 20 22 22

GFSFLT2_850_spd_084.txt.gz
Wind_Speed
21 17 16 17 17 18 18 19 20 18 18 18 17 21 18 15 13 14 17 16 15 11 8 10 6 15 20
20 18 16 16 16 17 18 20 18 19 17 16 20 21 17 13 11 10 13 11 9 11 3 4 5 8 10
22 19 18 17 18 19 18 18 17 16 16 19 22 18 15 11 10 9 9 10 10 8 9 4 7 12 19
22 21 19 19 20 20 21 21 18 17 18 19 18 14 12 10 11 12 12 12 12 10 9 10 10 10 10
22 21 20 19 19 18 18 18 18 17 18 20 16 14 13 12 13 13 14 14 14 14 13 12 12 12 12
20 22 21 20 19 18 17 16 16 18 19 18 15 16 15 14 14 14 14 14 14 15 17 18 16 16 14
20 19 18 16 15 16 16 16 18 18 12 11 11 13 14 14 13 12 12 11 12 14 16 17 19 20 20
14 15 15 14 14 14 14 16 16 15 13 12 11 12 12 12 11 10 8 7 7 8 11 13 16 18 19
9 9 11 12 12 12 13 13 13 12 12 12 10 9 9 10 9 8 7 7 6 6 6 6 8 9 11
8 8 9 10 11 12 12 12 12 9 10 12 9 6 5 9 9 8 8 8 8 8 7 6 7 7 8
10 10 9 9 10 10 10 10 11 11 6 8 7 9 7 4 5 7 8 8 8 9 10 9 9 9 10
13 12 11 11 11 9 8 9 9 10 9 8 8 8 8 7 6 6 8 9 9 9 11 12 13 13 13
14 13 12 12 10 10 9 9 7 7 7 9 8 8 9 10 10 8 9 8 10 11 12 13 14 14 15
14 14 12 11 11 11 10 9 8 8 8 8 9 10 12 13 11 10 10 9 6 9 11 13 14 14 15
15 14 13 13 13 12 11 11 10 9 9 9 10 12 13 13 12 11 11 11 12 14 15 16 17 18 20
16 16 15 14 14 13 13 13 12 11 11 11 11 12 13 12 13 13 13 12 13 14 16 18 19 20 21
17 16 15 15 16 16 14 14 13 13 13 13 13 13 13 13 14 12 13 14 14 15 17 19 21 21 22

GFSFLT2_850_spd_090.txt.gz
Wind_Speed
21 21 22 22 19 16 16 14 11 12 14 14 15 16 16 15 17 18 17 14 15 16 17 15 15 19 20
22 21 21 20 18 16 17 14 12 13 15 15 15 15 14 13 18 19 14 12 12 12 10 10 7 5 11
21 21 21 18 19 17 15 15 16 17 18 16 15 14 15 15 19 14 10 10 8 9 9 10 8 8 1
21 20 20 20 19 16 16 17 18 18 18 17 16 16 18 17 18 11 10 11 10 10 10 11 10 3 7
20 20 22 19 17 17 17 17 16 16 16 15 15 16 17 18 13 11 12 11 11 12 12 11 13 10 4
24 25 22 19 17 18 17 17 17 17 15 16 14 15 17 15 12 12 12 12 11 12 13 12 14 13 10
23 22 21 18 17 17 17 16 16 14 12 13 13 14 11 11 12 12 11 9 10 10 11 12 13 14 15
19 18 20 17 17 16 15 16 16 15 14 13 16 12 9 10 11 10 9 7 7 6 8 9 11 12 14
17 16 15 15 15 14 17 17 16 16 15 14 13 9 8 9 9 8 8 8 4 3 3 3 5 7 9
14 15 14 14 16 14 15 15 14 12 13 13 12 7 4 9 9 8 7 5 4 4 4 3 3 3 4
15 15 14 15 14 14 13 13 13 15 9 9 9 10 9 2 6 7 8 6 6 5 5 5 4 3 3
16 16 16 14 12 13 13 12 12 17 13 10 8 8 10 8 6 6 5 5 7 7 7 7 8 7 5
18 17 16 15 12 15 14 13 15 15 13 11 11 9 9 9 6 5 5 7 9 8 7 8 9 8 6
18 18 19 16 15 16 14 16 16 15 14 12 13 12 10 9 9 9 10 8 6 10 10 9 7 6 6
22 23 19 18 18 17 17 17 17 16 14 14 14 12 10 10 10 10 10 11 11 11 10 9 8 8 8
23 22 20 18 19 19 19 19 17 16 15 15 13 12 10 9 9 10 11 11 11 10 11 11 9 10 11
24 23 20 19 21 20 21 19 19 17 18 16 13 12 11 11 10 8 8 9 10 10 11 13 12 12 14

GFSFLT2_850_spd_093.txt.gz
Wind_Speed
22 21 22 21 20 20 18 17 16 13 12 14 15 16 17 17 18 18 18 20 19 17 17 16 14 16 17
25 24 24 23 23 21 19 16 15 13 12 13 16 16 16 15 15 16 18 19 15 13 13 10 8 10 8
24 25 27 23 22 21 18 17 15 14 13 14 16 16 16 16 16 17 18 13 11 11 12 10 9 8 11
23 23 23 23 22 20 20 17 16 16 16 17 17 17 18 19 17 18 15 13 10 12 12 11 11 8 7
23 24 25 23 21 19 18 16 17 17 17 17 17 17 18 17 17 18 15 13 12 12 14 12 12 10 6
26 24 23 21 20 18 19 18 18 16 18 18 17 17 18 17 18 16 15 13 13 13 13 13 11 12 8
26 25 24 19 19 20 19 18 18 17 15 13 15 14 17 18 15 12 12 12 12 12 11 12 11 12 11
23 21 20 18 19 19 18 18 18 17 15 15 15 15 16 16 14 11 9 10 9 10 10 11 10 10 11
22 21 19 17 18 20 20 21 19 18 18 17 17 12 13 14 14 12 9 8 7 7 4 5 6 8 8
21 19 17 17 19 18 18 20 19 14 16 17 14 11 7 14 14 10 9 5 7 7 6 5 3 3 4
20 20 19 19 18 17 17 17 16 14 7 12 13 14 12 5 10 11 9 9 10 8 6 5 5 5 4
22 22 21 20 17 16 16 16 15 14 14 12 12 9 13 12 6 9 9 9 9 8 8 8 8 7 6
25 24 21 18 18 18 17 16 16 15 17 16 15 11 12 14 10 8 8 8 8 9 9 9 9 9 9
23 21 23 23 21 19 17 16 18 16 17 18 16 15 13 13 11 10 9 7 8 10 11 10 10 10 9
25 27 27 24 22 20 19 19 19 17 18 18 16 17 15 13 12 11 11 12 12 12 10 9 9 9 9
28 30 28 25 23 22 21 20 18 18 19 18 17 16 14 13 11 12 12 12 13 12 12 10 11 11 10
29 30 29 25 24 24 23 21 22 21 20 19 19 17 15 14 10 10 11 12 13 13 13 12 12 13 13

GFSFLT2_850_spd_096.txt.gz
Wind_Speed
22 21 20 21 20 19 19 19 19 19 20 20 18 16 17 18 18 20 20 20 20 20 22 20 17 12 13
26 23 24 23 22 21 23 21 18 18 16 15 14 16 18 18 18 17 17 18 19 20 18 16 13 10 9
27 27 27 26 26 25 25 19 18 18 15 14 15 16 17 17 18 17 18 19 22 19 15 13 11 11 8
28 28 28 27 26 27 24 21 19 17 16 16 16 17 18 18 18 19 19 20 19 16 15 13 13 12 8
30 30 29 31 31 25 23 20 20 19 17 16 16 17 17 17 17 19 20 20 15 15 15 14 13 12 10
31 30 31 29 27 24 23 21 22 19 19 17 17 17 18 18 18 19 21 17 15 14 14 13 12 11 13
28 28 32 28 24 25 23 22 20 18 15 15 16 17 18 19 18 19 17 15 14 13 13 12 11 11 11
29 26 27 26 26 22 19 19 21 19 19 19 17 16 18 18 19 17 15 12 11 9 9 11 9 9 10
28 27 27 26 24 24 27 25 24 21 19 19 17 17 18 19 18 17 14 11 9 8 4 5 7 7 8
29 29 26 24 23 22 21 24 22 18 20 21 19 13 11 19 18 15 12 10 8 8 5 4 4 3 3
27 25 24 23 23 22 21 20 20 19 11 19 18 17 16 5 11 14 13 11 9 8 6 6 6 5 3
28 28 27 26 24 21 21 20 20 19 17 13 15 14 18 17 8 12 12 12 10 9 8 9 9 6 5
31 29 26 22 22 23 22 22 22 20 21 21 18 15 14 17 14 8 12 12 10 10 10 11 10 9 9
30 25 23 27 27 24 22 22 22 22 21 21 21 19 16 17 16 12 12 9 9 10 11 11 10 11 11
28 26 28 28 27 25 23 23 24 24 22 23 22 19 19 17 17 16 14 11 10 10 10 11 12 11 10
32 30 30 29 28 26 25 25 24 23 22 22 21 21 21 19 19 16 14 11 12 12 13 13 13 12 11
34 33 31 28 28 28 27 25 25 24 22 22 22 23 22 23 18 16 13 12 13 13 13 13 13 13 12

GFSFLT2_850_spd_099.txt.gz
Wind_Speed
25 21 20 22 20 20 19 19 17 17 18 19 20 22 20 17 15 16 20 21 20 18 17 19 21 16 10
22 24 23 23 22 21 20 21 19 21 20 20 18 18 18 15 17 19 20 17 17 18 18 20 16 13 8
31 28 28 25 25 24 24 24 23 22 19 20 18 16 17 17 17 19 19 19 17 18 19 17 15 12 9
37 34 31 28 27 27 27 26 25 21 21 18 16 17 16 17 15 19 19 17 16 19 19 15 14 12 10
36 34 32 31 31 31 27 22 23 23 21 19 18 18 15 17 16 18 18 17 19 17 14 13 12 10 9
36 36 36 33 31 26 22 23 26 24 22 19 19 17 17 17 16 18 18 18 18 15 13 11 10 9 8
47 42 36 29 24 23 25 25 26 23 16 15 18 17 17 17 18 18 17 17 15 14 12 11 9 8 8
31 29 26 26 21 25 23 23 24 23 22 21 18 17 17 18 18 17 17 16 13 10 10 9 8 7 8
28 29 25 25 31 30 30 28 27 27 25 21 19 18 18 19 19 17 15 15 12 9 8 6 5 6 7
29 29 28 29 29 30 29 31 32 27 25 24 23 16 13 21 20 18 15 14 11 9 7 5 4 5 6
25 27 27 28 28 28 26 27 28 27 15 23 23 22 18 6 14 18 16 14 12 10 9 8 6 5 5
28 29 30 30 28 26 25 25 25 23 21 18 18 19 23 20 9 11 16 15 13 12 11 9 8 6 5
32 32 32 30 28 27 26 26 26 24 24 23 18 17 17 19 16 12 15 16 14 14 12 10 11 10 8
33 33 30 29 28 27 29 29 27 26 25 24 23 20 18 15 17 14 11 11 16 15 13 12 12 11 10
34 33 31 31 30 30 29 29 30 29 27 25 24 23 21 18 16 17 16 15 11 13 13 14 13 12 12
33 33 33 33 32 31 31 30 29 28 26 25 24 23 22 20 19 20 19 18 14 13 13 12 12 11 12
31 34 33 33 32 32 31 30 29 27 25 25 24 23 23 23 21 22 20 17 15 15 14 13 13 13 14

GFSFLT2_850_spd_102.txt.gz
Wind_Speed
38 41 42 43 42 30 24 22 22 21 20 19 18 18 19 18 19 17 16 15 17 18 17 16 17 18 15
32 33 31 35 29 24 22 22 22 23 23 22 20 19 19 18 20 17 17 17 16 18 17 16 17 15 13
21 22 26 26 27 27 27 27 30 27 26 22 20 18 19 19 18 18 17 16 18 19 18 16 15 13 12
29 28 28 30 33 34 34 35 32 29 25 21 22 21 18 18 18 16 16 16 16 15 16 17 13 11 11
37 37 39 40 40 39 39 35 30 29 25 25 23 21 18 21 20 18 17 17 16 17 16 10 9 10 11
35 48 42 32 39 46 41 34 34 33 29 24 23 22 19 21 17 18 17 17 16 15 11 9 9 10 11
34 38 40 43 43 37 38 37 34 25 16 17 22 21 19 20 19 18 18 17 16 13 10 9 10 10 10
34 35 35 37 41 37 31 29 26 25 23 20 19 19 20 20 20 20 19 17 15 12 9 8 9 10 10
31 31 28 28 30 30 29 31 32 32 26 22 20 20 20 21 21 20 19 17 14 10 9 8 9 9 10
27 26 24 26 26 30 30 36 32 31 28 26 25 20 17 23 23 22 20 17 15 12 10 8 9 9 9
30 29 30 32 31 32 30 32 35 34 22 29 27 26 21 9 25 24 21 17 15 12 12 11 10 9 7
28 30 33 30 30 30 30 30 29 26 28 21 20 23 27 22 11 23 22 19 17 13 13 13 11 10 9
28 29 30 31 31 29 31 30 27 26 25 23 22 17 21 28 24 15 19 23 19 17 16 15 14 12 10
30 30 31 31 30 31 30 30 29 29 27 26 23 22 21 23 22 18 16 15 22 21 18 17 15 14 12
30 28 32 32 36 33 30 29 31 32 31 30 27 26 23 19 20 21 19 20 16 21 20 18 16 13 13
30 30 32 30 33 33 32 33 34 33 33 32 30 28 26 24 22 21 22 22 17 23 19 17 15 14 14
28 31 30 28 32 35 35 34 33 31 31 30 30 29 30 29 25 24 23 24 23 19 17 15 14 14 14

GFSFLT2_850_spd_105.txt.gz
Wind_Speed
40 44 44 40 42 43 45 47 40 31 25 25 25 25 26 26 27 27 25 19 17 18 17 17 15 16 15
47 38 43 40 36 40 46 40 31 27 26 25 25 27 27 27 27 25 24 20 18 19 18 17 16 17 16
50 34 35 33 36 36 40 33 26 26 26 25 29 28 27 27 26 26 25 22 18 20 18 18 19 17 15
32 34 26 25 29 35 35 30 31 31 30 30 29 29 28 28 24 25 23 21 19 17 17 17 19 18 15
29 33 32 29 34 37 39 38 38 36 34 33 34 31 30 29 25 23 23 21 18 16 17 18 16 13 14
33 32 40 39 40 44 44 43 38 39 37 37 36 33 30 28 26 24 23 22 19 16 18 16 14 13 14
35 39 35 35 41 45 45 49 46 42 42 40 38 35 28 28 26 24 23 22 19 17 16 15 14 14 13
33 36 37 32 34 39 48 47 49 45 41 36 35 35 30 29 28 26 24 22 19 18 16 14 14 14 13
37 36 37 37 36 35 43 45 47 47 42 34 31 28 29 30 28 27 24 23 21 18 16 14 14 15 13
32 36 36 34 41 37 40 46 47 42 42 37 31 30 24 31 30 30 27 24 22 20 16 15 13 14 14
31 32 33 33 36 38 37 40 46 43 39 38 37 34 28 21 36 33 29 25 24 21 17 16 15 14 14
31 31 33 36 37 35 37 40 41 41 37 34 39 38 37 30 21 33 31 29 25 22 18 19 17 15 14
31 32 32 34 34 38 43 43 41 40 33 31 30 29 34 35 29 24 35 33 28 24 22 21 19 18 16
31 30 30 31 33 41 44 42 39 35 33 30 29 29 28 30 29 25 27 23 29 28 24 23 22 20 18
25 28 28 30 32 36 38 38 41 37 35 33 32 29 25 24 28 28 25 26 19 29 28 26 24 22 19
20 25 28 29 33 32 35 34 36 35 37 38 37 33 28 26 25 26 27 28 24 30 28 27 25 23 20
16 19 22 27 29 34 38 34 36 33 37 34 38 37 36 30 28 26 26 27 26 28 29 26 23 21 19

GFSFLT2_850_spd_108.txt.gz
Wind_Speed
40 39 36 37 35 37 40 43 43 44 47 51 45 41 37 32 33 35 33 30 29 26 23 23 22 20 18
33 39 42 44 44 40 41 43 41 42 51 48 43 40 33 35 35 32 30 29 28 24 23 21 21 20 19
48 44 46 47 44 42 48 42 40 45 50 43 36 31 35 34 31 31 30 29 28 24 23 22 22 21 21
34 38 36 31 35 34 34 34 35 40 37 35 33 34 34 35 32 30 29 28 27 25 23 23 22 22 22
33 33 38 34 34 34 30 29 38 37 37 35 36 37 38 35 33 30 28 25 25 24 22 20 21 21 22
24 30 36 35 33 34 32 33 36 41 40 40 40 40 39 37 34 31 27 26 26 25 23 23 23 20 20
34 33 28 36 36 38 41 39 43 44 47 46 43 42 40 37 35 31 28 27 27 25 24 24 23 20 19
31 32 33 29 35 38 35 38 46 50 48 51 50 47 44 41 36 35 30 28 26 26 26 24 22 18 18
31 33 34 33 31 37 41 42 46 53 52 50 51 51 49 43 39 37 32 30 28 26 25 25 21 17 18
32 34 34 34 34 36 43 45 46 42 51 49 49 50 40 43 38 35 33 31 30 27 27 24 21 20 19
35 36 36 35 33 36 40 46 47 50 45 51 53 49 42 34 42 37 36 36 33 29 29 26 22 21 20
33 36 37 39 34 33 38 41 42 48 47 45 54 57 54 32 28 40 41 40 35 32 31 26 23 22 20
30 34 36 37 37 35 35 39 42 51 48 45 47 53 50 47 45 40 45 43 39 35 33 27 26 24 22
29 33 32 33 33 33 31 39 41 45 46 44 51 49 52 46 43 36 38 40 44 39 34 29 27 25 23
28 31 28 29 30 29 30 35 42 43 42 41 48 44 39 45 36 32 35 39 29 42 37 34 30 27 25
27 28 27 25 25 26 28 32 39 40 44 45 43 35 30 31 33 33 33 34 36 36 39 35 32 30 27
26 28 25 21 20 23 25 30 34 37 34 39 40 40 36 25 30 30 32 34 37 32 42 35 33 31 28

GFSFLT2_850_spd_111.txt.gz
Wind_Speed
41 41 43 39 40 44 37 35 34 33 33 37 40 41 40 44 47 43 39 37 37 36 34 30 29 24 23
38 33 30 38 38 39 40 43 43 43 42 42 45 43 44 47 48 43 39 39 36 32 32 30 27 24 22
20 29 29 34 39 41 47 49 49 52 47 44 46 45 42 47 43 41 37 40 34 32 30 29 27 24 24
26 19 23 25 26 33 35 34 34 35 39 41 40 36 39 42 41 37 38 34 33 31 30 29 27 25 24
26 25 24 23 28 26 31 31 32 33 32 30 30 40 46 39 37 39 35 35 31 30 30 30 26 25 23
24 23 23 23 24 26 31 33 34 31 30 30 34 44 41 40 41 42 39 34 31 29 29 28 27 24 23
24 22 23 24 24 26 29 32 33 36 31 36 37 41 41 42 44 42 38 35 32 28 28 28 27 25 23
26 26 26 26 25 21 24 32 33 33 33 41 43 47 46 44 43 41 38 35 32 28 28 30 28 26 22
28 27 27 28 29 30 34 27 37 38 36 39 46 47 49 47 47 44 40 36 33 30 28 30 30 25 23
35 35 32 32 32 32 29 31 34 39 38 40 45 47 44 52 50 47 41 37 36 31 29 29 29 26 25
33 32 33 31 29 30 31 36 31 43 41 37 45 47 46 29 51 49 47 43 38 34 33 32 31 27 25
27 28 27 29 31 27 32 33 35 35 39 47 45 46 51 44 32 43 49 47 44 39 36 34 32 27 26
32 35 33 30 31 34 33 34 35 35 32 43 46 43 45 51 53 46 53 53 49 43 38 36 34 31 29
30 32 34 32 36 33 35 33 33 33 35 37 44 48 45 48 49 48 46 52 54 46 39 36 34 30 28
31 34 34 33 31 29 31 31 33 32 34 34 38 42 45 47 47 45 49 53 47 46 43 38 35 31 28
34 30 28 30 33 32 28 28 29 31 31 34 40 40 41 40 43 46 47 48 45 41 42 41 38 32 29
33 32 27 31 30 30 26 27 25 27 30 35 38 42 38 31 35 36 47 46 44 39 37 44 39 34 32

GFSFLT2_850_spd_114.txt.gz
Wind_Speed
13 20 29 33 32 34 38 39 40 35 31 30 32 32 33 31 28 31 35 37 37 38 43 39 31 31 27
21 20 20 30 35 36 41 39 36 39 39 37 35 37 33 34 35 37 41 41 39 38 45 34 32 29 28
28 27 26 19 23 22 31 37 36 29 33 38 41 45 43 43 43 38 40 41 42 43 40 35 33 28 29
23 22 24 23 19 18 18 21 26 27 35 37 38 42 44 44 44 44 42 41 44 41 38 35 31 29 28
24 23 19 18 18 19 19 20 22 22 25 30 31 32 32 34 36 35 36 35 43 37 36 33 29 28 26
21 21 21 17 17 16 19 22 26 24 24 24 27 27 27 27 26 26 33 40 31 34 34 30 30 28 27
20 20 23 23 24 27 23 21 21 25 28 28 26 27 27 25 30 38 34 31 36 36 32 32 31 28 27
23 25 26 26 27 27 28 34 33 29 24 33 29 27 26 31 36 38 37 38 38 34 34 33 30 28 27
24 25 25 25 24 27 29 29 30 30 32 29 32 31 30 33 37 38 38 39 37 36 36 33 30 28 28
28 26 24 23 20 19 21 26 29 30 24 30 30 31 34 37 41 43 43 42 41 40 38 36 31 28 28
26 25 25 24 24 18 19 24 27 29 26 25 29 32 35 24 28 43 46 47 44 42 39 39 35 29 28
24 26 25 27 25 25 29 30 28 32 28 26 30 29 36 41 41 36 39 48 48 46 44 41 35 31 28
26 27 27 29 32 34 32 29 33 31 32 34 33 33 36 42 41 42 36 45 49 48 47 44 41 37 34
29 29 30 32 35 28 25 27 30 35 31 29 33 33 37 42 47 42 40 41 47 51 50 47 44 41 34
29 30 33 35 35 29 27 30 31 33 34 31 30 29 32 37 44 46 45 42 45 48 52 51 48 44 36
31 31 32 35 35 30 30 32 34 34 31 30 30 29 30 37 43 42 43 42 46 46 47 50 51 46 37
30 29 33 32 32 31 30 32 34 33 32 28 28 29 31 32 37 43 43 41 45 46 46 52 54 47 39

GFSFLT2_850_spd_117.txt.gz
Wind_Speed
24 23 23 17 19 25 26 38 45 46 45 38 45 50 39 38 41 41 37 35 32 28 27 31 31 38 37
31 27 27 28 22 19 24 28 36 32 36 39 36 42 45 37 37 39 38 36 32 31 33 33 37 38 41
28 26 25 23 26 23 17 19 22 27 32 37 44 46 40 39 40 44 39 39 38 36 36 37 39 38 44
23 24 23 21 21 22 24 24 21 18 17 22 23 29 35 36 39 45 45 49 46 40 38 38 41 42 43
21 22 22 21 20 20 20 24 30 24 18 15 18 22 24 28 34 38 41 45 46 45 43 41 42 50 38
19 21 22 23 23 23 24 26 26 19 24 24 20 21 22 24 24 27 30 34 39 43 43 40 52 37 31
19 20 23 23 25 27 26 27 27 30 29 32 28 28 22 23 22 18 20 27 29 33 37 43 33 31 31
19 19 21 22 23 24 26 28 30 29 24 30 32 31 30 24 20 18 16 17 22 28 33 30 33 30 28
18 20 23 21 19 20 22 24 26 26 24 26 26 30 31 28 22 18 20 25 26 30 30 31 31 28 27
22 23 21 20 19 17 18 20 22 22 11 15 15 18 24 32 30 24 23 25 31 33 35 35 32 29 29
23 26 23 22 21 21 20 20 26 29 27 25 29 27 29 30 29 23 23 26 30 32 37 38 34 33 33
24 24 24 25 23 23 25 28 26 29 30 30 31 32 32 31 29 30 30 32 31 37 40 40 38 37 36
23 23 24 24 26 26 29 28 26 24 22 22 27 30 35 41 39 32 31 32 34 36 40 43 44 43 42
24 25 27 27 27 28 30 30 27 29 24 23 24 25 31 36 42 40 37 37 32 36 39 39 42 46 45
25 27 29 30 29 29 31 28 24 26 32 29 25 26 29 32 38 41 40 41 40 38 38 43 44 46 46
28 27 30 30 29 31 28 30 29 29 28 30 29 27 29 34 37 42 38 38 40 40 41 44 46 48 47
30 28 27 26 27 29 29 29 27 26 29 29 28 29 31 29 32 37 37 39 38 39 44 45 42 43 46

GFSFLT2_850_spd_120.txt.gz
Wind_Speed
23 24 23 26 26 25 23 23 27 28 28 29 32 40 46 48 46 40 39 42 41 39 37 34 32 32 25
26 26 27 25 27 28 26 22 23 22 26 31 30 40 44 41 42 42 36 40 43 43 42 33 35 35 29
26 27 24 23 25 25 27 25 24 22 19 23 28 30 33 34 40 42 50 42 43 44 36 36 35 37 32
20 21 22 21 21 26 29 25 27 21 24 19 19 18 22 27 26 30 35 42 42 40 42 42 40 38 37
18 19 21 23 25 25 27 28 27 25 26 24 24 19 18 19 22 28 38 38 40 41 46 48 47 45 42
18 21 21 21 23 24 26 27 30 23 26 29 27 29 23 19 18 21 22 29 33 37 42 45 49 50 48
18 18 20 20 23 27 26 26 28 28 29 36 28 30 30 30 23 20 21 26 30 34 36 37 40 42 46
17 18 18 22 23 23 24 26 28 25 22 29 29 30 28 31 30 25 21 21 25 27 30 31 31 35 46
18 18 18 21 22 23 23 24 27 27 23 18 17 26 26 27 26 24 23 21 20 14 15 22 19 31 46
21 20 20 22 22 20 20 21 22 24 16 25 30 27 21 26 21 16 21 20 17 17 16 15 15 32 34
24 23 23 25 24 22 21 21 24 27 28 27 31 32 32 34 35 23 19 14 12 17 21 25 29 35 38
26 25 23 25 24 24 24 24 24 26 26 26 26 26 29 31 30 33 33 28 20 19 21 24 28 30 38
25 23 23 25 26 26 26 27 28 28 25 22 21 23 27 31 32 32 34 31 31 20 22 28 28 34 38
20 20 22 25 27 27 29 28 30 31 27 21 21 20 26 28 30 33 33 30 25 24 24 27 31 34 35
20 24 27 28 29 30 27 26 28 30 31 27 24 22 24 26 29 31 33 33 29 31 33 30 31 35 35
29 29 29 29 29 28 25 25 27 28 29 27 24 23 24 26 23 30 33 34 34 29 36 36 37 34 36
27 28 27 26 24 26 27 26 27 27 25 23 23 24 28 30 30 25 29 30 32 36 34 37 35 37 35

GFSFLT2_850_spd_123.txt.gz
Wind_Speed
20 21 22 24 26 26 26 26 23 24 25 27 31 33 34 36 38 37 40 42 42 42 42 42 42 43 39
20 21 23 25 26 27 29 26 28 24 24 24 23 28 31 31 36 41 41 43 44 41 44 44 43 43 41
19 19 20 22 23 23 24 25 26 23 23 25 25 22 23 27 33 33 41 44 40 45 45 43 43 46 42
16 16 18 20 22 24 25 25 25 23 24 23 24 25 20 20 22 27 27 29 41 41 47 41 42 45 43
17 18 18 21 22 24 25 27 25 21 23 23 25 24 25 24 21 19 22 27 27 26 29 43 40 44 45
19 19 19 19 21 24 26 29 32 25 31 28 25 25 23 25 30 26 20 17 24 29 28 38 46 46 42
20 19 20 19 21 25 25 25 27 28 31 35 28 28 24 22 24 30 30 24 22 25 27 29 35 39 45
19 20 20 19 20 23 25 25 26 25 25 30 27 27 27 22 19 20 24 34 27 23 24 29 34 37 40
19 20 20 19 20 24 25 26 29 30 26 16 28 37 33 28 21 19 16 18 29 28 23 23 28 32 34
20 21 21 22 21 23 23 24 25 25 26 31 32 30 26 24 10 14 18 17 23 25 24 20 12 19 26
28 27 25 24 25 24 23 22 23 25 27 27 31 31 25 30 36 28 26 24 23 18 17 19 15 11 15
28 29 29 27 24 26 26 25 25 27 28 27 30 30 30 30 32 34 30 27 24 24 21 14 10 16 20
24 23 22 22 25 26 28 28 30 29 27 26 27 26 25 27 31 32 33 32 28 21 24 21 14 16 25
20 22 22 22 25 27 31 32 33 34 29 26 25 25 27 25 27 30 30 28 32 28 22 23 24 17 22
23 25 27 29 32 32 31 32 30 31 31 29 26 25 22 24 26 28 31 30 29 30 27 27 29 27 22
23 25 27 28 30 30 29 28 28 31 32 30 26 22 21 22 24 26 25 28 27 27 26 27 30 28 30
24 25 26 26 25 26 26 27 32 32 29 27 23 22 25 26 27 21 20 21 25 27 27 27 29 28 30